Weather History for Twentynine Palms, CA

Change the Weather History Date:

Tuesday, May 6, 2014

  Actual Average Record
Temperature  
Mean Temperature 62 °F -  
Max Temperature 71 °F 83 °F 98 °F (2004)
Min Temperature 55 °F 57 °F 33 °F (2008)
Degree Days  
Heating Degree Days 2    
Growing Degree Days 12 (Base 50)    
Moisture  
Dew Point 33 °F    
Average Humidity 34    
Maximum Humidity 55    
Minimum Humidity 19    
Precipitation  
Precipitation 0.00 in - - ()
Sea Level Pressure  
Sea Level Pressure 29.68 in    
Wind  
Wind Speed 15 mph (WNW)    
Max Wind Speed 31 mph    
Max Gust Speed 39 mph    
Visibility 10 miles    
Events      
Averages and records for this station are not official NWS values.
T = Trace of Precipitation, MM = Missing Value Source: NWS Daily Summary

Daily Weather History Graph

Daily Weather History Graph

Search for Another Location

Airport:

Trip Planner

Search our weather history database for the weather conditions in past years. The results will help you decide how hot, cold, wet, or windy it might be!

Date:

Astronomy

May. 06, 2014 Rise Set
Actual Time 5:50 AM PDT 7:32 PM PDT
Civil Twilight 5:22 AM PDT 8:00 PM PDT
Nautical Twilight 4:50 AM PDT 8:32 PM PDT
Astronomical Twilight 4:15 AM PDT 9:07 PM PDT
Moon 12:06 PM PDT (5/6) 12:57 AM PDT (5/6)
Length of Visible Light 14h 37m
Length of Day
13h 42m
Waxing Crescent, 47% of the Moon is Illuminated
May 6
Waxing Crescent
May 6
First Quarter
May 14
Full
May 21
Last Quarter
May 28
New

Hourly Weather History & Observations

Time (PDT) Temp. Dew Point Humidity Pressure Visibility Wind Dir Wind Speed Gust Speed Precip Events Conditions
12:56 AM 62.1 °F 34.0 °F 35% 29.72 in 10.0 mi Variable 3.5 mph - N/A   Clear
4:56 AM 57.0 °F 39.9 °F 53% 29.73 in 10.0 mi WSW 12.7 mph 21.9 mph N/A   Clear
5:56 AM 55.9 °F 39.9 °F 55% 29.73 in 9.0 mi West 8.1 mph - N/A   Clear
6:56 AM 55.9 °F 37.9 °F 51% 29.75 in 10.0 mi WSW 11.5 mph - N/A   Clear
7:56 AM 57.9 °F 37.9 °F 47% 29.75 in 10.0 mi West 13.8 mph - N/A   Partly Cloudy
8:56 AM 60.1 °F 36.0 °F 41% 29.75 in 10.0 mi WNW 16.1 mph 24.2 mph N/A   Partly Cloudy
9:56 AM 62.1 °F 35.1 °F 37% 29.75 in 10.0 mi West 23.0 mph 28.8 mph N/A   Partly Cloudy
10:56 AM 64.0 °F 33.1 °F 31% 29.75 in 10.0 mi NW 16.1 mph 21.9 mph N/A   Partly Cloudy
11:56 AM 66.9 °F 30.0 °F 25% 29.73 in 10.0 mi WNW 17.3 mph 25.3 mph N/A   Partly Cloudy
12:56 PM 68.0 °F 28.9 °F 23% 29.73 in 10.0 mi NW 15.0 mph - N/A   Scattered Clouds
1:56 PM 70.0 °F 28.0 °F 21% 29.72 in 9.0 mi NW 20.7 mph 31.1 mph N/A   Scattered Clouds
2:56 PM 70.0 °F 26.1 °F 19% 29.70 in 10.0 mi WNW 23.0 mph 32.2 mph N/A   Scattered Clouds
3:34 PM 66.9 °F 32.0 °F 27% 29.78 in 10.0 mi WSW 17.3 mph - N/A   Mostly Cloudy
3:56 PM 66.0 °F 32.0 °F 28% 29.70 in 10.0 mi SW 11.5 mph 23.0 mph N/A   Mostly Cloudy
4:16 PM 66.9 °F 28.9 °F 24% 29.78 in 10.0 mi NW 20.7 mph 28.8 mph N/A   Mostly Cloudy
4:56 PM 66.0 °F 28.9 °F 25% 29.05 in 10.0 mi NW 18.4 mph 26.5 mph N/A   Mostly Cloudy
5:56 PM 63.0 °F 30.9 °F 30% 29.72 in 10.0 mi WNW 25.3 mph 35.7 mph N/A   Clear
6:56 PM 63.0 °F 28.9 °F 28% 29.73 in 10.0 mi WNW 24.2 mph 33.4 mph N/A   Mostly Cloudy
7:56 PM 60.1 °F 30.0 °F 32% 29.74 in 10.0 mi WNW 31.1 mph 39.1 mph N/A   Mostly Cloudy
8:56 PM 59.0 °F 30.9 °F 35% 29.75 in 10.0 mi WNW 24.2 mph 38.0 mph N/A   Clear
9:56 PM 57.0 °F 33.1 °F 40% 29.76 in 10.0 mi WNW 26.5 mph 34.5 mph N/A   Clear
10:56 PM 55.9 °F 33.1 °F 42% 29.77 in 10.0 mi WNW 20.7 mph - N/A   Clear
11:56 PM 55.9 °F 33.1 °F 42% 29.11 in 10.0 mi WNW 16.1 mph - N/A   Clear